Colby, KS

7:02 AM CDT on April 19, 2018 (GMT -0500)
Shaltz

Weather History for KCBK - October, 2013

Change the Weather History Date:

Tuesday, October 29, 2013

  Actual Average (KGLD) Record (KGLD)
Temperature  
Mean Temperature 38 °F -  
Max Temperature 42 °F 58 °F 90 °F (2003)
Min Temperature 35 °F 31 °F 1 °F (1917)
Degree Days  
Heating Degree Days 26    
Moisture  
Dew Point 39 °F    
Average Humidity 100    
Maximum Humidity 100    
Minimum Humidity 93    
Precipitation  
Precipitation 0.00 in - - ()
Sea Level Pressure  
Sea Level Pressure 30.00 in    
Wind  
Wind Speed 11 mph (North)    
Max Wind Speed 15 mph    
Max Gust Speed 18 mph    
Averages and records for this station are not official NWS values.
T = Trace of Precipitation, MM = Missing Value Source: NWS Daily Summary

Daily Weather History Graph

Daily Weather History Graph

Search for Another Location

Airport or City:

Astronomy

Oct. 29, 2013 Rise Set
Actual Time 8:09 AM CDT 6:45 PM CDT
Civil Twilight 7:41 AM CDT 7:13 PM CDT
Nautical Twilight 7:09 AM CDT 7:45 PM CDT
Astronomical Twilight 6:38 AM CDT 8:16 PM CDT
Moon 3:02 AM CDT (10/29) 3:59 PM CDT (10/29)
Length of Visible Light 11h 32m
Length of Day
10h 36m
Waning Crescent, 25% of the Moon is Illuminated
Oct 29
Waning Crescent
Nov 3
New
Nov 9
First Quarter
Nov 17
Full
Nov 25
Last Quarter

Hourly Weather History & Observations

Time (CDT) Temp. Windchill Dew Point Humidity Pressure Visibility Wind Dir Wind Speed Gust Speed Precip Events Conditions
12:15 AM 39.2 °F 32.0 °F 39.2 °F 100% 30.03 in - North 11.5 mph - N/A   Overcast
12:35 AM 39.2 °F 32.5 °F 39.2 °F 100% 30.03 in - North 10.4 mph - N/A   Overcast
12:55 AM 39.2 °F 31.2 °F 39.2 °F 100% 30.03 in - North 13.8 mph - N/A   Overcast
1:15 AM 39.2 °F 31.2 °F 39.2 °F 100% 30.03 in - North 13.8 mph 18.4 mph N/A   Overcast
1:35 AM 39.2 °F 31.2 °F 39.2 °F 100% 30.02 in - North 13.8 mph - N/A   Overcast
1:55 AM 37.4 °F 29.3 °F 37.4 °F 100% 30.02 in - North 12.7 mph - N/A   Overcast
2:15 AM 37.4 °F 30.8 °F 37.4 °F 100% 30.02 in - North 9.2 mph - N/A   Overcast
2:35 AM 37.4 °F 29.8 °F 37.4 °F 100% 30.02 in - North 11.5 mph - N/A   Overcast
2:55 AM 37.4 °F 28.9 °F 37.4 °F 100% 30.01 in - North 13.8 mph 18.4 mph N/A   Overcast
3:15 AM 37.4 °F 29.3 °F 37.4 °F 100% 30.02 in - NNW 12.7 mph 16.1 mph N/A   Overcast
3:35 AM 37.4 °F 29.8 °F 37.4 °F 100% 30.02 in - North 11.5 mph - N/A   Overcast
3:55 AM 37.4 °F 30.3 °F 37.4 °F 100% 30.03 in - NNW 10.4 mph 17.3 mph N/A   Overcast
4:15 AM 37.4 °F 30.3 °F 37.4 °F 100% 30.02 in - NNW 10.4 mph - N/A   Overcast
4:35 AM 37.4 °F 29.8 °F 37.4 °F 100% 30.01 in - North 11.5 mph - N/A   Overcast
4:55 AM 37.4 °F 28.5 °F 37.4 °F 100% 30.01 in - North 15.0 mph 18.4 mph N/A   Overcast
5:15 AM 37.4 °F 29.8 °F 37.4 °F 100% 29.99 in - North 11.5 mph - N/A   Overcast
5:35 AM 37.4 °F 29.3 °F 37.4 °F 100% 30.00 in - North 12.7 mph - N/A   Overcast
5:55 AM 37.4 °F 30.8 °F 37.4 °F 100% 30.01 in - North 9.2 mph - N/A   Overcast
6:15 AM 37.4 °F 30.3 °F 37.4 °F 100% 30.01 in - North 10.4 mph - N/A   Overcast
6:35 AM 37.4 °F 29.8 °F 37.4 °F 100% 30.01 in - North 11.5 mph - N/A   Overcast
6:55 AM 37.4 °F 29.8 °F 37.4 °F 100% 30.00 in - North 11.5 mph - N/A   Overcast
7:15 AM 37.4 °F 29.3 °F 37.4 °F 100% 30.00 in - North 12.7 mph - N/A   Overcast
7:35 AM 37.4 °F 29.8 °F 37.4 °F 100% 29.99 in - NNW 11.5 mph - N/A   Overcast
7:55 AM 37.4 °F 30.8 °F 37.4 °F 100% 29.99 in - NNW 9.2 mph - N/A   Overcast
8:15 AM 37.4 °F 31.4 °F 37.4 °F 100% 30.00 in - North 8.1 mph - N/A   Overcast
8:35 AM 35.6 °F 28.0 °F 35.6 °F 100% 30.01 in - NNW 10.4 mph - N/A   Overcast
8:55 AM 35.6 °F 27.5 °F 35.6 °F 100% 30.02 in - NNW 11.5 mph - N/A   Overcast
9:15 AM 37.4 °F 30.3 °F 37.4 °F 100% 30.02 in - NNW 10.4 mph - N/A   Overcast
9:35 AM 37.4 °F 29.8 °F 37.4 °F 100% 30.02 in - North 11.5 mph - N/A   Overcast
9:55 AM 37.4 °F 29.8 °F 37.4 °F 100% 30.02 in - North 11.5 mph - N/A   Overcast
10:15 AM 37.4 °F 29.8 °F 37.4 °F 100% 30.02 in - North 11.5 mph - N/A   Overcast
10:35 AM 37.4 °F 30.3 °F 37.4 °F 100% 30.02 in - North 10.4 mph - N/A   Overcast
10:55 AM 37.4 °F 29.3 °F 37.4 °F 100% 30.02 in - North 12.7 mph - N/A   Overcast
11:15 AM 37.4 °F 29.3 °F 37.4 °F 100% 30.03 in - NNW 12.7 mph - N/A   Overcast
11:35 AM 37.4 °F 28.9 °F 37.4 °F 100% 30.03 in - NNW 13.8 mph - N/A   Overcast
11:55 AM 37.4 °F 28.9 °F 37.4 °F 100% 30.03 in - NNW 13.8 mph 17.3 mph N/A   Overcast
12:15 PM 37.4 °F 29.3 °F 37.4 °F 100% 30.03 in - NNW 12.7 mph - N/A   Overcast
12:35 PM 37.4 °F 30.3 °F 37.4 °F 100% 30.02 in - North 10.4 mph - N/A   Overcast
12:55 PM 37.4 °F 30.3 °F 37.4 °F 100% 30.02 in - NNW 10.4 mph - N/A   Overcast
1:15 PM 39.2 °F 32.5 °F 39.2 °F 100% 30.01 in - NNW 10.4 mph - N/A   Overcast
1:35 PM 39.2 °F 32.0 °F 39.2 °F 100% 30.00 in - NW 11.5 mph - N/A   Overcast
1:55 PM 39.2 °F 33.0 °F 39.2 °F 100% 29.99 in - NNW 9.2 mph - N/A   Overcast
2:15 PM 39.2 °F 34.2 °F 39.2 °F 100% 29.98 in - NNW 6.9 mph - N/A   Overcast
2:35 PM 41.0 °F 36.4 °F 41.0 °F 100% 29.97 in - NNW 6.9 mph - N/A   Overcast
2:55 PM 41.0 °F 36.4 °F 41.0 °F 100% 29.96 in - North 6.9 mph - N/A   Overcast
3:15 PM 41.0 °F 38.0 °F 41.0 °F 100% 29.96 in - NNW 4.6 mph - N/A   Overcast
3:35 PM 41.0 °F 36.4 °F 41.0 °F 100% 29.95 in - NNW 6.9 mph - N/A   Overcast
3:55 PM 42.8 °F 39.3 °F 42.8 °F 100% 29.95 in - NW 5.8 mph - N/A   Overcast
4:15 PM 42.8 °F 39.3 °F 41.0 °F 93% 29.95 in - NW 5.8 mph - N/A   Overcast
4:35 PM 42.8 °F 40.1 °F 41.0 °F 93% 29.95 in - North 4.6 mph - N/A   Overcast
4:55 PM 42.8 °F 40.1 °F 42.8 °F 100% 29.96 in - NW 4.6 mph - N/A   Overcast
5:15 PM 42.8 °F 39.3 °F 42.8 °F 100% 29.96 in - North 5.8 mph - N/A   Overcast
5:35 PM 42.8 °F 40.1 °F 41.0 °F 93% 29.96 in - North 4.6 mph - N/A   Overcast
5:55 PM 42.8 °F 38.6 °F 42.8 °F 100% 29.96 in - North 6.9 mph - N/A   Overcast
6:15 PM 42.8 °F 38.0 °F 41.0 °F 93% 29.96 in - North 8.1 mph - N/A   Overcast
6:35 PM 41.0 °F 35.2 °F 41.0 °F 100% 29.97 in - North 9.2 mph - N/A   Overcast
6:55 PM 41.0 °F 35.8 °F 41.0 °F 100% 29.97 in - North 8.1 mph - N/A   Overcast
7:15 PM 41.0 °F 35.2 °F 41.0 °F 100% 29.98 in - North 9.2 mph - N/A   Overcast
7:35 PM 41.0 °F 34.7 °F 41.0 °F 100% 29.99 in - North 10.4 mph - N/A   Overcast
7:55 PM 41.0 °F 35.2 °F 41.0 °F 100% 30.00 in - North 9.2 mph - N/A   Overcast
8:15 PM 41.0 °F 34.7 °F 41.0 °F 100% 30.01 in - North 10.4 mph - N/A   Overcast
8:35 PM 41.0 °F 36.4 °F 41.0 °F 100% 30.01 in - North 6.9 mph - N/A   Overcast
8:55 PM 41.0 °F 35.2 °F 41.0 °F 100% 30.02 in - North 9.2 mph - N/A   Overcast
9:15 PM 39.2 °F 35.0 °F 39.2 °F 100% 30.02 in - NNE 5.8 mph - N/A   Overcast
9:35 PM 39.2 °F 33.6 °F 39.2 °F 100% 30.02 in - North 8.1 mph - N/A   Overcast
9:55 PM 39.2 °F 35.0 °F 39.2 °F 100% 30.02 in - NNE 5.8 mph - N/A   Overcast
10:15 PM 39.2 °F 35.9 °F 39.2 °F 100% 30.03 in - NNE 4.6 mph - N/A   Overcast
10:35 PM 39.2 °F 34.2 °F 39.2 °F 100% 30.02 in - North 6.9 mph - N/A   Unknown
10:55 PM 39.2 °F 33.6 °F 39.2 °F 100% 30.02 in - NNE 8.1 mph - N/A   Overcast
11:15 PM 39.2 °F 34.2 °F 39.2 °F 100% 30.02 in - North 6.9 mph - N/A   Overcast
11:35 PM 39.2 °F 34.2 °F 39.2 °F 100% 30.00 in - NNE 6.9 mph - N/A   Overcast
11:55 PM 39.2 °F 35.0 °F 39.2 °F 100% 30.02 in - NE 5.8 mph - N/A   Overcast